Time,TemperatureF,DewpointF,PressureIn,WindDirection,WindDirectionDegrees,WindSpeedMPH,WindSpeedGustMPH,Humidity,HourlyPrecipIn,Conditions,Clouds,dailyrainin,SoftwareType,DateUTC
2013-09-14 00:05:00,54.7,49.0,29.87,SE,124,0.0,1.0,82,0.00,,,0.00,weatherlink.com 1.10,2013-09-14 04:05:00,
2013-09-14 00:20:00,54.5,49.0,29.87,SE,124,0.0,0.0,82,0.00,,,0.00,weatherlink.com 1.10,2013-09-14 04:20:00,
2013-09-14 00:35:00,54.1,49.0,29.87,SE,124,0.0,0.0,84,0.00,,,0.00,weatherlink.com 1.10,2013-09-14 04:35:00,
2013-09-14 00:50:00,53.8,49.0,29.88,SE,124,0.0,0.0,84,0.00,,,0.00,weatherlink.com 1.10,2013-09-14 04:50:00,
2013-09-14 01:05:00,53.7,49.0,29.88,SE,124,0.0,0.0,83,0.00,,,0.00,weatherlink.com 1.10,2013-09-14 05:05:00,
2013-09-14 01:20:00,53.6,49.0,29.88,SE,124,0.0,0.0,83,0.00,,,0.00,weatherlink.com 1.10,2013-09-14 05:20:00,
2013-09-14 01:35:00,53.4,49.0,29.89,SE,124,0.0,0.0,84,0.00,,,0.00,weatherlink.com 1.10,2013-09-14 05:35:00,
2013-09-14 01:50:00,53.1,48.0,29.89,SE,124,0.0,0.0,84,0.00,,,0.00,weatherlink.com 1.10,2013-09-14 05:50:00,
2013-09-14 02:05:00,52.9,49.0,29.89,SE,139,0.0,0.0,85,0.00,,,0.00,weatherlink.com 1.10,2013-09-14 06:05:00,
2013-09-14 02:20:00,52.6,48.0,29.89,SE,139,0.0,1.0,85,0.00,,,0.00,weatherlink.com 1.10,2013-09-14 06:20:00,
2013-09-14 02:35:00,52.4,48.0,29.89,SE,139,0.0,1.0,85,0.00,,,0.00,weatherlink.com 1.10,2013-09-14 06:35:00,
2013-09-14 02:50:00,52.2,48.0,29.89,SE,138,0.0,1.0,84,0.00,,,0.00,weatherlink.com 1.10,2013-09-14 06:50:00,
2013-09-14 03:05:00,52.1,48.0,29.89,SE,138,0.0,1.0,85,0.00,,,0.00,weatherlink.com 1.10,2013-09-14 07:05:00,
2013-09-14 03:20:00,51.9,48.0,29.89,SE,138,0.0,0.0,85,0.00,,,0.00,weatherlink.com 1.10,2013-09-14 07:20:00,
2013-09-14 03:35:00,51.5,48.0,29.90,SE,138,0.0,0.0,86,0.00,,,0.00,weatherlink.com 1.10,2013-09-14 07:35:00,
2013-09-14 03:50:00,51.1,47.0,29.90,SE,139,0.0,0.0,86,0.00,,,0.00,weatherlink.com 1.10,2013-09-14 07:50:00,
2013-09-14 04:05:00,50.9,47.0,29.90,SE,139,0.0,0.0,86,0.00,,,0.00,weatherlink.com 1.10,2013-09-14 08:05:00,
2013-09-14 04:20:00,50.8,47.0,29.91,SE,138,0.0,0.0,86,0.00,,,0.00,weatherlink.com 1.10,2013-09-14 08:20:00,
2013-09-14 04:35:00,51.0,47.0,29.90,SE,138,0.0,0.0,86,0.00,,,0.00,weatherlink.com 1.10,2013-09-14 08:35:00,
2013-09-14 04:50:00,51.0,47.0,29.91,SE,138,0.0,0.0,85,0.00,,,0.00,weatherlink.com 1.10,2013-09-14 08:50:00,
2013-09-14 05:05:00,51.0,47.0,29.91,SE,139,0.0,1.0,85,0.00,,,0.00,weatherlink.com 1.10,2013-09-14 09:05:00,
2013-09-14 05:20:00,51.0,46.0,29.92,SE,124,0.0,1.0,84,0.00,,,0.00,weatherlink.com 1.10,2013-09-14 09:20:00,
2013-09-14 05:35:00,50.7,46.0,29.92,SE,124,0.0,0.0,83,0.00,,,0.00,weatherlink.com 1.10,2013-09-14 09:35:00,
2013-09-14 05:50:00,50.7,46.0,29.92,SE,124,0.0,1.0,83,0.00,,,0.00,weatherlink.com 1.10,2013-09-14 09:50:00,
2013-09-14 06:06:00,50.4,46.0,29.93,ESE,122,0.0,1.0,84,0.00,,,0.00,weatherlink.com 1.10,2013-09-14 10:06:00,
2013-09-14 06:21:00,50.1,46.0,29.93,ESE,123,0.0,1.0,84,0.00,,,0.00,weatherlink.com 1.10,2013-09-14 10:21:00,
2013-09-14 06:36:00,49.7,45.0,29.94,ESE,122,0.0,0.0,85,0.00,,,0.00,weatherlink.com 1.10,2013-09-14 10:36:00,
2013-09-14 06:51:00,49.1,45.0,29.95,ESE,123,0.0,0.0,87,0.00,,,0.00,weatherlink.com 1.10,2013-09-14 10:51:00,
2013-09-14 07:06:00,48.7,45.0,29.96,ESE,122,0.0,0.0,88,0.00,,,0.00,weatherlink.com 1.10,2013-09-14 11:06:00,
2013-09-14 07:21:00,48.7,46.0,29.96,ESE,123,0.0,0.0,89,0.00,,,0.00,weatherlink.com 1.10,2013-09-14 11:21:00,
2013-09-14 07:36:00,49.3,46.0,29.96,ESE,122,0.0,0.0,88,0.00,,,0.00,weatherlink.com 1.10,2013-09-14 11:36:00,
2013-09-14 07:51:00,50.3,46.0,29.97,SE,134,0.0,1.0,85,0.00,,,0.00,weatherlink.com 1.10,2013-09-14 11:51:00,
2013-09-14 08:06:00,51.0,46.0,29.97,SE,134,0.0,0.0,83,0.00,,,0.00,weatherlink.com 1.10,2013-09-14 12:06:00,
2013-09-14 08:21:00,51.5,46.0,29.97,SE,134,0.0,0.0,82,0.00,,,0.00,weatherlink.com 1.10,2013-09-14 12:21:00,
2013-09-14 08:36:00,52.2,47.0,29.98,SE,134,0.0,1.0,82,0.00,,,0.00,weatherlink.com 1.10,2013-09-14 12:36:00,
2013-09-14 08:51:00,53.1,46.0,29.98,SE,134,0.0,1.0,78,0.00,,,0.00,weatherlink.com 1.10,2013-09-14 12:51:00,
2013-09-14 09:06:00,54.1,47.0,29.99,SE,141,0.0,1.0,76,0.00,,,0.00,weatherlink.com 1.10,2013-09-14 13:06:00,
2013-09-14 09:21:00,55.0,47.0,29.99,ESE,113,0.0,1.0,74,0.00,,,0.00,weatherlink.com 1.10,2013-09-14 13:21:00,
2013-09-14 09:36:00,55.8,47.0,29.99,SE,134,1.0,1.0,72,0.00,,,0.00,weatherlink.com 1.10,2013-09-14 13:36:00,
2013-09-14 09:51:00,56.5,48.0,29.99,ENE,64,0.0,1.0,73,0.00,,,0.00,weatherlink.com 1.10,2013-09-14 13:51:00,
2013-09-14 10:06:00,57.7,48.0,30.00,SE,139,0.0,2.0,70,0.00,,,0.00,weatherlink.com 1.10,2013-09-14 14:06:00,
2013-09-14 10:21:00,58.0,48.0,30.00,SE,131,1.0,1.0,69,0.00,,,0.00,weatherlink.com 1.10,2013-09-14 14:21:00,
2013-09-14 10:36:00,58.2,48.0,30.00,ESE,115,0.0,1.0,70,0.00,,,0.00,weatherlink.com 1.10,2013-09-14 14:36:00,
2013-09-14 10:51:00,58.7,49.0,30.00,ESE,122,0.0,1.0,70,0.00,,,0.00,weatherlink.com 1.10,2013-09-14 14:51:00,
2013-09-14 11:06:00,59.0,49.0,30.00,ESE,119,0.0,1.0,69,0.00,,,0.00,weatherlink.com 1.10,2013-09-14 15:06:00,
2013-09-14 11:21:00,59.9,49.0,30.00,SE,131,0.0,1.0,68,0.00,,,0.00,weatherlink.com 1.10,2013-09-14 15:21:00,
2013-09-14 11:36:00,60.1,49.0,30.00,SE,128,0.0,1.0,66,0.00,,,0.00,weatherlink.com 1.10,2013-09-14 15:36:00,
2013-09-14 11:51:00,60.9,49.0,30.01,ESE,105,1.0,2.0,66,0.00,,,0.00,weatherlink.com 1.10,2013-09-14 15:51:00,
2013-09-14 12:07:00,62.0,49.0,30.01,SE,128,1.0,3.0,62,0.00,,,0.00,weatherlink.com 1.10,2013-09-14 16:07:00,
2013-09-14 12:22:00,62.0,49.0,30.01,ESE,113,0.0,1.0,63,0.00,,,0.00,weatherlink.com 1.10,2013-09-14 16:22:00,
2013-09-14 12:37:00,62.0,50.0,30.01,ESE,120,0.0,1.0,65,0.00,,,0.00,weatherlink.com 1.10,2013-09-14 16:37:00,
2013-09-14 12:52:00,62.5,50.0,30.01,ESE,122,0.0,1.0,64,0.00,,,0.00,weatherlink.com 1.10,2013-09-14 16:52:00,
2013-09-14 13:07:00,62.9,51.0,30.02,ESE,110,0.0,1.0,65,0.00,,,0.00,weatherlink.com 1.10,2013-09-14 17:07:00,
2013-09-14 13:22:00,62.6,50.0,30.03,ESE,107,0.0,3.0,63,0.00,,,0.00,weatherlink.com 1.10,2013-09-14 17:22:00,
2013-09-14 13:37:00,63.2,49.0,30.02,ESE,123,1.0,3.0,61,0.00,,,0.00,weatherlink.com 1.10,2013-09-14 17:37:00,
2013-09-14 13:52:00,64.9,50.0,30.02,SE,130,0.0,2.0,59,0.00,,,0.00,weatherlink.com 1.10,2013-09-14 17:52:00,
2013-09-14 14:07:00,63.9,48.0,30.02,SE,131,0.0,2.0,57,0.00,,,0.00,weatherlink.com 1.10,2013-09-14 18:07:00,
2013-09-14 14:22:00,62.4,49.0,30.02,SSE,150,0.0,1.0,61,0.00,,,0.00,weatherlink.com 1.10,2013-09-14 18:22:00,
2013-09-14 14:37:00,61.8,49.0,30.02,SSE,150,0.0,1.0,64,0.00,,,0.00,weatherlink.com 1.10,2013-09-14 18:37:00,
2013-09-14 14:52:00,62.1,50.0,30.02,SE,132,0.0,1.0,65,0.00,,,0.00,weatherlink.com 1.10,2013-09-14 18:52:00,
2013-09-14 15:07:00,62.3,50.0,30.02,SE,134,0.0,1.0,65,0.00,,,0.00,weatherlink.com 1.10,2013-09-14 19:07:00,
2013-09-14 15:22:00,62.1,51.0,30.02,SE,127,0.0,1.0,66,0.00,,,0.00,weatherlink.com 1.10,2013-09-14 19:22:00,
2013-09-14 15:37:00,62.4,50.0,30.02,SE,127,0.0,1.0,65,0.00,,,0.00,weatherlink.com 1.10,2013-09-14 19:37:00,
2013-09-14 15:52:00,64.5,51.0,30.02,ESE,120,0.0,1.0,62,0.00,,,0.00,weatherlink.com 1.10,2013-09-14 19:52:00,
2013-09-14 16:07:00,64.2,50.0,30.03,ESE,120,0.0,1.0,60,0.00,,,0.00,weatherlink.com 1.10,2013-09-14 20:07:00,
2013-09-14 16:22:00,63.1,51.0,30.03,ESE,118,0.0,1.0,65,0.00,,,0.00,weatherlink.com 1.10,2013-09-14 20:22:00,
2013-09-14 16:37:00,63.2,50.0,30.04,ESE,118,0.0,1.0,62,0.00,,,0.00,weatherlink.com 1.10,2013-09-14 20:37:00,
2013-09-14 16:52:00,61.6,50.0,30.05,ESE,118,0.0,1.0,66,0.00,,,0.00,weatherlink.com 1.10,2013-09-14 20:52:00,
2013-09-14 17:07:00,60.8,49.0,30.05,SE,129,0.0,2.0,65,0.00,,,0.00,weatherlink.com 1.10,2013-09-14 21:07:00,
2013-09-14 17:22:00,59.8,49.0,30.06,South,177,0.0,2.0,67,0.00,,,0.00,weatherlink.com 1.10,2013-09-14 21:22:00,
2013-09-14 17:37:00,59.3,49.0,30.07,ESE,121,0.0,1.0,69,0.00,,,0.00,weatherlink.com 1.10,2013-09-14 21:37:00,
2013-09-14 17:52:00,58.6,48.0,30.07,ESE,122,0.0,0.0,69,0.00,,,0.00,weatherlink.com 1.10,2013-09-14 21:52:00,
2013-09-14 18:07:00,58.1,49.0,30.07,ESE,122,0.0,1.0,71,0.00,,,0.00,weatherlink.com 1.10,2013-09-14 22:07:00,
2013-09-14 18:22:00,57.6,49.0,30.07,ESE,121,0.0,0.0,72,0.00,,,0.00,weatherlink.com 1.10,2013-09-14 22:22:00,
2013-09-14 18:37:00,57.2,48.0,30.08,ESE,123,0.0,0.0,72,0.00,,,0.00,weatherlink.com 1.10,2013-09-14 22:37:00,
2013-09-14 18:52:00,56.6,48.0,30.09,ESE,123,0.0,1.0,72,0.00,,,0.00,weatherlink.com 1.10,2013-09-14 22:52:00,
2013-09-14 19:07:00,55.7,47.0,30.09,ESE,123,0.0,0.0,73,0.00,,,0.00,weatherlink.com 1.10,2013-09-14 23:07:00,
2013-09-14 19:22:00,54.7,47.0,30.09,ESE,123,0.0,0.0,75,0.00,,,0.00,weatherlink.com 1.10,2013-09-14 23:22:00,
2013-09-14 19:37:00,53.6,46.0,30.10,ESE,122,0.0,0.0,76,0.00,,,0.00,weatherlink.com 1.10,2013-09-14 23:37:00,
2013-09-14 19:52:00,52.9,46.0,30.10,ESE,122,0.0,0.0,77,0.00,,,0.00,weatherlink.com 1.10,2013-09-14 23:52:00,
2013-09-14 20:07:00,52.4,46.0,30.11,ESE,122,0.0,0.0,79,0.00,,,0.00,weatherlink.com 1.10,2013-09-15 00:07:00,
2013-09-14 20:22:00,52.0,46.0,30.11,ESE,123,0.0,0.0,80,0.00,,,0.00,weatherlink.com 1.10,2013-09-15 00:22:00,
2013-09-14 20:37:00,51.8,46.0,30.12,ESE,123,0.0,0.0,81,0.00,,,0.00,weatherlink.com 1.10,2013-09-15 00:37:00,
2013-09-14 20:52:00,51.4,46.0,30.13,ESE,122,0.0,0.0,81,0.00,,,0.00,weatherlink.com 1.10,2013-09-15 00:52:00,
2013-09-14 21:07:00,51.1,45.0,30.13,ESE,123,0.0,0.0,81,0.00,,,0.00,weatherlink.com 1.10,2013-09-15 01:07:00,
2013-09-14 21:22:00,50.9,45.0,30.13,ESE,123,0.0,0.0,81,0.00,,,0.00,weatherlink.com 1.10,2013-09-15 01:22:00,
2013-09-14 21:37:00,50.7,45.0,30.13,ESE,122,0.0,0.0,82,0.00,,,0.00,weatherlink.com 1.10,2013-09-15 01:37:00,
2013-09-14 21:52:00,50.5,46.0,30.13,ESE,123,0.0,0.0,83,0.00,,,0.00,weatherlink.com 1.10,2013-09-15 01:52:00,
2013-09-14 22:07:00,50.3,45.0,30.13,ESE,122,0.0,0.0,83,0.00,,,0.00,weatherlink.com 1.10,2013-09-15 02:07:00,
2013-09-14 22:22:00,50.0,45.0,30.13,ESE,122,0.0,0.0,84,0.00,,,0.00,weatherlink.com 1.10,2013-09-15 02:22:00,
2013-09-14 22:37:00,49.7,45.0,30.13,ESE,122,0.0,1.0,84,0.00,,,0.00,weatherlink.com 1.10,2013-09-15 02:37:00,
2013-09-14 22:52:00,49.7,45.0,30.14,ESE,122,0.0,0.0,84,0.00,,,0.00,weatherlink.com 1.10,2013-09-15 02:52:00,
2013-09-14 23:07:00,49.7,45.0,30.14,ESE,122,0.0,0.0,83,0.00,,,0.00,weatherlink.com 1.10,2013-09-15 03:07:00,
2013-09-14 23:22:00,49.6,45.0,30.14,ESE,123,0.0,0.0,83,0.00,,,0.00,weatherlink.com 1.10,2013-09-15 03:22:00,
2013-09-14 23:38:00,49.5,45.0,30.14,ESE,122,0.0,0.0,84,0.00,,,0.00,weatherlink.com 1.10,2013-09-15 03:38:00,
2013-09-14 23:53:00,49.5,45.0,30.15,ESE,122,0.0,0.0,84,0.00,,,0.00,weatherlink.com 1.10,2013-09-15 03:53:00,